Regional Weather Roundup
Issued by NWS

Home | Current Version | Previous Version | Text Only | Print | Product List | Glossary Off
Versions: 1 2 3 4 5 6 7 8 9 10 11 12 13 14 15 16 17 18 19 20 21 22 23 24 25 26 27 28 29 30 31 32 33 34 35 36 37 38 39 40 41 42 43 44 45 46 47 48 49 50

443
ASUS43 KDTX 232010
RWRMI
MICHIGAN HOURLY REGIONAL WEATHER ROUNDUP
NATIONAL WEATHER SERVICE DETROIT/PONTIAC MI
ISSUED BY NATIONAL WEATHER SERVICE GRAND RAPIDS MI
400 PM EDT WED AUG 23 2017

NOTE: "FAIR" INDICATES FEW OR NO CLOUDS BELOW 12,000 FEET WITH NO
SIGNIFICANT WEATHER AND/OR OBSTRUCTION TO VISIBILITY.

MIZ047>049-052>055-059>063-066>070-074>076-081>083-232100-
SOUTHEAST LOWER MICHIGAN

CITY           SKY/WX    TMP DP  RH WIND       PRES   REMARKS
ADRIAN         SUNNY     75  51  43 NW12      29.97F
ALMA           PTSUNNY   70  50  48 N13G22    29.96F
ANN ARBOR      MOSUNNY   76  49  38 NW13G18   29.95F
BAD AXE        PTSUNNY   67  53  58 W7        29.95S
DETROIT CITY   MOSUNNY   73  49  42 NW6G18    29.94F
DETROIT        MOSUNNY   78  51  38 NW12      29.95S
FLINT          CLOUDY    71  52  50 N13       29.95F
GROSSE ILE     MOSUNNY   77  51  39 NW10G16   29.94S
HILLSDALE      MOSUNNY   72  50  46 W12G18    29.98S
HOWELL         CLOUDY    73  49  42 W10G16    29.97S

CITY           SKY/WX    TMP DP  RH WIND       PRES   REMARKS
JACKSON        MOSUNNY   73  50  44 W8        29.97F
LANSING        PTSUNNY   72  50  45 NW12      29.97F
MASON          PTSUNNY   75  48  37 W9G17     29.96F
MONROE         MOSUNNY   76  53  44 NW12G17   29.94S
MT. CLEMENS    MOSUNNY   73  52  48 NW12      29.93S
PONTIAC        PTSUNNY   73  50  44 NW12      29.95S
PORT HOPE        N/A     68  53  58 NW8       29.92S
PORT HURON     CLOUDY    70  54  56 W5        29.95S
TRI CITIES     PTSUNNY   72  54  53 NW13      29.95S
YPSILANTI      SUNNY     78  52  40 W14G23    29.95F
$$
MIZ043>046-050>051-056>058-064>065-071>073-077>080-232100-
SOUTHWEST LOWER MICHIGAN

CITY           SKY/WX    TMP DP  RH WIND       PRES   REMARKS
BATTLE CREEK   PTSUNNY   73  50  44 NW17      29.99F
BENTON HARBOR  MOSUNNY   70  52  52 NW9       30.03F
BIG RAPIDS     PTSUNNY   68  46  44 NW14G22   29.99S
COLDWATER      MOSUNNY   73  47  38 NW13      29.99S
HOLLAND        MOSUNNY   69  53  56 NW12G20   30.03S
GRAND RAPIDS   PTSUNNY   74  50  42 W14       29.98S
KALAMAZOO      PTSUNNY   75  47  36 NW18      30.00S
MARSHALL       MOSUNNY   71  48  44 NW10      29.97F
MOUNT PLEASANT MOSUNNY   73  49  42 N6        29.96S
MUSKEGON       MOSUNNY   71  51  49 W15G22    30.01S
STURGIS        PTSUNNY   74  55  49 NW9       29.99S
$$
MIZ016>042-232100-
NORTHERN LOWER MICHIGAN

CITY           SKY/WX    TMP DP  RH WIND       PRES   REMARKS
BEAVER ISLAND  PTSUNNY   65  49  55 NW10G16   30.00S
BELLAIRE       PTSUNNY   64  48  54 N5        29.99S
CADILLAC       PTSUNNY   66  44  44 NW12G17   30.00R
CHARLEVOIX     PTSUNNY   64  50  61 NW13      30.03R
GAYLORD        MOSUNNY   62  46  55 NW8       29.98S
HOUGHTON LAKE  PTSUNNY   65  44  46 NW14      29.99R
MANISTEE       MOSUNNY   68  52  56 NW12G17   30.01S
OSCODA         PTSUNNY   73  44  35 W10G22    29.93R
PELLSTON       CLOUDY    64  51  62 NW16G25   29.99R
TRAVERSE CITY  PTSUNNY   69  49  48 NW12      29.99S
LUDINGTON      MOSUNNY   67  49  52 NW13      30.02S
$$
MIZ007>008-015-232100-
EASTERN UPPER MICHIGAN

CITY           SKY/WX    TMP DP  RH WIND       PRES   REMARKS
KINROSS        CLOUDY    57  49  74 NW15G22   29.96R
MACKINAC ISLAN CLOUDY    60  52  75 NW13G22   29.97R
NEWBERRY       CLOUDY    57  49  75 NW13      29.99S
S. S. MARIE    CLOUDY    59  50  72 NW13G21   29.95R
$$
MIZ004>006-011>014-085-232100-
CENTRAL UPPER MICHIGAN

CITY           SKY/WX    TMP DP  RH WIND       PRES   REMARKS
MANISTIQUE     PTSUNNY   62  42  47 N13G20    30.00S
ESCANABA       MOSUNNY   67  45  45 NW10      30.00R
MENOMINEE      MOSUNNY   69  47  45 N6        30.00S
SAWYER-GWINN   MOSUNNY   63  41  45 NW13G18   30.02S
$$
MIZ001>003-009>011-084-232100-
WESTERN UPPER MICHIGAN

CITY           SKY/WX    TMP DP  RH WIND       PRES   REMARKS
IRON MOUNTAIN  MOSUNNY   68  43  40 N15G22    30.00F
HOUGHTON       SUNNY     59  38  45 NW17      30.05R
COPPER HARBOR    N/A     59  45  59 N16       30.03S
IRONWOOD       SUNNY     60  42  51 N6        30.09S
$$

ABBREVIATIONS USED IN REMARKS
   TC - TEMPERATURE IN CELSIUS
  WCI - WIND CHILL INDEX
   HX - HEAT INDEX
  VSB - VISIBILITY





USA.gov is the U.S. government's official web portal to all federal, state and local government web resources and services.